| time (UTC) | temp F | wind direction | speed MPH | gust MPH | rain 1hr in | rain 24hr in | rain mn in | humidity % | barometer mb |
| 20260906100035 | 56 | 0 | 0.0 | 9.0 | 0.00 | 0.03 | 0.00 | 85 | 1021.8 |
| 20260906094535 | 56 | 352 | 2.0 | 8.0 | 0.00 | 0.03 | 0.00 | 85 | 1021.7 |
| 20260906093040 | 56 | 346 | 2.0 | 5.0 | 0.00 | 0.03 | 0.00 | 85 | 1021.7 |
| 20260906091554 | 56 | 355 | 3.0 | 6.0 | 0.00 | 0.03 | 0.00 | 86 | 1021.9 |
| 20260906090035 | 56 | 9 | 3.0 | 7.0 | 0.00 | 0.03 | 0.00 | 87 | 1021.9 |
| 20260906084536 | 56 | 0 | 1.0 | 3.0 | 0.00 | 0.03 | 0.00 | 87 | 1021.7 |
| 20260906083036 | 56 | 9 | 1.0 | 5.0 | 0.00 | 0.03 | 0.00 | 88 | 1021.8 |
| 20260906081536 | 56 | 346 | 4.0 | 8.0 | 0.00 | 0.03 | 0.00 | 88 | 1021.9 |
| 20260906080038 | 56 | 23 | 3.0 | 9.0 | 0.00 | 0.03 | 0.00 | 88 | 1022.1 |
| 20260906074545 | 56 | 352 | 4.0 | 9.0 | 0.00 | 0.03 | 0.00 | 88 | 1022.3 |
| 20260906073039 | 56 | 13 | 3.0 | 10.0 | 0.00 | 0.03 | 0.00 | 88 | 1022.5 |
| 20260906071534 | 56 | 329 | 5.0 | 9.0 | 0.00 | 0.03 | 0.00 | 87 | 1022.7 |
| 20260906070035 | 56 | 346 | 3.0 | 9.0 | 0.00 | 0.03 | 0.00 | 87 | 1023.1 |
| 20260906064537 | 56 | 341 | 4.0 | 10.0 | 0.00 | 0.03 | 0.00 | 87 | 1023.3 |
| 20260906063036 | 56 | 328 | 7.0 | 10.0 | 0.00 | 0.03 | 0.00 | 86 | 1023.1 |
| 20260906061534 | 56 | 325 | 6.0 | 10.0 | 0.00 | 0.03 | 0.00 | 86 | 1023.1 |
| 20260906060036 | 57 | 320 | 9.0 | 17.0 | 0.00 | 0.03 | 0.00 | 84 | 1023.1 |
| 20260906054541 | 57 | 331 | 12.0 | 18.0 | 0.00 | 0.03 | 0.03 | 84 | 1023.3 |
| 20260906053036 | 58 | 329 | 9.0 | 16.0 | 0.00 | 0.03 | 0.03 | 82 | 1023.5 |
| 20260906051533 | 58 | 288 | 6.0 | 12.0 | 0.00 | 0.03 | 0.03 | 82 | 1023.9 |
| 20260906050049 | 58 | 295 | 6.0 | 11.0 | 0.00 | 0.03 | 0.03 | 83 | 1023.5 |
| 20260906044533 | 57 | 304 | 6.0 | 10.0 | 0.00 | 0.03 | 0.03 | 84 | 1023.1 |
| 20260906043033 | 58 | 328 | 5.0 | 10.0 | 0.00 | 0.03 | 0.03 | 82 | 1022.8 |
| 20260906041537 | 58 | 337 | 8.0 | 16.0 | 0.00 | 0.03 | 0.03 | 80 | 1022.8 |
| 20260906040039 | 59 | 317 | 7.0 | 14.0 | 0.00 | 0.03 | 0.03 | 78 | 1022.9 |
| 20260906034536 | 60 | 342 | 9.0 | 17.0 | 0.00 | 0.03 | 0.03 | 76 | 1021.9 |
| 20260906033046 | 61 | 334 | 10.0 | 19.0 | 0.00 | 0.03 | 0.03 | 73 | 1022.0 |
| 20260906031537 | 62 | 348 | 17.0 | 26.0 | 0.00 | 0.03 | 0.03 | 66 | 1021.6 |
| 20260906030044 | 63 | 289 | 10.0 | 28.0 | 0.00 | 0.03 | 0.03 | 64 | 1021.6 |
| 20260906024545 | 63 | 355 | 13.0 | 23.0 | 0.00 | 0.04 | 0.03 | 63 | 1019.6 |
| 20260906023048 | 64 | 360 | 13.0 | 21.0 | 0.00 | 0.04 | 0.03 | 60 | 1019.9 |
| 20260906021536 | 66 | 355 | 12.0 | 20.0 | 0.00 | 0.04 | 0.03 | 57 | 1019.6 |
| 20260906020051 | 67 | 346 | 13.0 | 19.0 | 0.00 | 0.04 | 0.03 | 52 | 1019.8 |
| 20260906014535 | 67 | 319 | 14.0 | 21.0 | 0.00 | 0.04 | 0.03 | 52 | 1020.0 |
| 20260906013049 | 69 | 297 | 3.0 | 10.0 | 0.00 | 0.04 | 0.03 | 45 | 1020.1 |
| 20260906011556 | 70 | 32 | 9.0 | 16.0 | 0.00 | 0.04 | 0.03 | 44 | 1018.9 |
| 20260906010042 | 70 | 22 | 10.0 | 14.0 | 0.00 | 0.04 | 0.03 | 43 | 1018.5 |
| 20260906004539 | 71 | 41 | 12.0 | 19.0 | 0.00 | 0.04 | 0.03 | 41 | 1018.9 |
| 20260906003038 | 72 | 37 | 12.0 | 19.0 | 0.00 | 0.04 | 0.03 | 41 | 1018.9 |
| 20260906001537 | 74 | 23 | 11.0 | 20.0 | 0.00 | 0.04 | 0.03 | 39 | 1019.2 |
| 20260906000050 | 74 | 44 | 13.0 | 22.0 | 0.00 | 0.04 | 0.03 | 40 | 1019.4 |
| 20260905234538 | 75 | 45 | 12.0 | 19.0 | 0.00 | 0.04 | 0.03 | 39 | 1019.4 |
| 20260905233042 | 75 | 47 | 13.0 | 17.0 | 0.00 | 0.04 | 0.03 | 39 | 1019.5 |
| 20260905231538 | 74 | 26 | 10.0 | 14.0 | 0.00 | 0.04 | 0.03 | 41 | 1019.5 |
| 20260905230040 | 74 | 38 | 10.0 | 16.0 | 0.00 | 0.04 | 0.03 | 41 | 1019.5 |
| 20260905224548 | 73 | 35 | 8.0 | 18.0 | 0.00 | 0.04 | 0.03 | 42 | 1019.6 |
| 20260905223038 | 75 | 19 | 12.0 | 20.0 | 0.00 | 0.04 | 0.03 | 40 | 1019.9 |
| 20260905221537 | 73 | 82 | 11.0 | 15.0 | 0.00 | 0.04 | 0.03 | 41 | 1020.0 |
| 20260905220037 | 73 | 84 | 7.0 | 17.0 | 0.00 | 0.04 | 0.03 | 41 | 1020.1 |
| 20260905214537 | 74 | 61 | 8.0 | 16.0 | 0.00 | 0.04 | 0.03 | 42 | 1020.2 |
| 20260905213037 | 74 | 38 | 12.0 | 19.0 | 0.00 | 0.04 | 0.03 | 43 | 1020.5 |
| 20260905211541 | 73 | 76 | 9.0 | 18.0 | 0.00 | 0.04 | 0.03 | 45 | 1020.6 |
| 20260905210036 | 72 | 83 | 8.0 | 18.0 | 0.00 | 0.04 | 0.03 | 45 | 1020.8 |
| 20260905204543 | 72 | 62 | 8.0 | 18.0 | 0.00 | 0.04 | 0.03 | 46 | 1020.9 |
| 20260905203040 | 72 | 46 | 13.0 | 19.0 | 0.00 | 0.04 | 0.03 | 47 | 1020.9 |
| 20260905201536 | 71 | 28 | 9.0 | 20.0 | 0.00 | 0.04 | 0.03 | 50 | 1021.0 |
| 20260905200040 | 70 | 42 | 10.0 | 18.0 | 0.00 | 0.04 | 0.03 | 53 | 1021.1 |
| 20260905194539 | 69 | 67 | 7.0 | 15.0 | 0.00 | 0.04 | 0.03 | 55 | 1021.3 |
| 20260905193035 | 69 | 42 | 11.0 | 18.0 | 0.00 | 0.04 | 0.03 | 55 | 1021.5 |
| 20260905191537 | 67 | 50 | 6.0 | 14.0 | 0.00 | 0.04 | 0.03 | 58 | 1021.5 |
| 20260905190035 | 67 | 44 | 8.0 | 14.0 | 0.00 | 0.04 | 0.03 | 58 | 1021.8 |
| 20260905184559 | 66 | 55 | 4.0 | 12.0 | 0.00 | 0.04 | 0.03 | 60 | 1022.0 |
| 20260905183045 | 66 | 88 | 7.0 | 11.0 | 0.00 | 0.04 | 0.03 | 62 | 1022.3 |
| 20260905181546 | 65 | 83 | 5.0 | 9.0 | 0.00 | 0.04 | 0.03 | 63 | 1022.6 |
| 20260905180037 | 64 | 64 | 2.0 | 10.0 | 0.00 | 0.04 | 0.03 | 67 | 1022.7 |
| 20260905174538 | 63 | 71 | 3.0 | 10.0 | 0.00 | 0.04 | 0.03 | 69 | 1022.7 |
| 20260905173036 | 63 | 56 | 3.0 | 10.0 | 0.00 | 0.04 | 0.03 | 68 | 1022.8 |
| 20260905171541 | 62 | 0 | 1.0 | 9.0 | 0.00 | 0.04 | 0.03 | 69 | 1023.0 |
| 20260905170036 | 62 | 78 | 1.0 | 8.0 | 0.00 | 0.04 | 0.03 | 71 | 1023.0 |
| 20260905164539 | 61 | 0 | 1.0 | 9.0 | 0.00 | 0.04 | 0.03 | 74 | 1023.0 |
| 20260905163036 | 61 | 100 | 3.0 | 9.0 | 0.00 | 0.04 | 0.03 | 74 | 1023.0 |
| 20260905161537 | 60 | 80 | 2.0 | 9.0 | 0.00 | 0.04 | 0.03 | 77 | 1022.9 |
| 20260905160036 | 59 | 71 | 3.0 | 8.0 | 0.00 | 0.04 | 0.03 | 78 | 1022.8 |
| 20260905154600 | 59 | 57 | 2.0 | 9.0 | 0.00 | 0.04 | 0.03 | 80 | 1022.8 |
| 20260905153039 | 58 | 55 | 3.0 | 6.0 | 0.00 | 0.04 | 0.03 | 83 | 1022.7 |
| 20260905151537 | 56 | 192 | 0.0 | 5.0 | 0.00 | 0.04 | 0.03 | 89 | 1022.7 |
| 20260905150037 | 56 | 192 | 4.0 | 8.0 | 0.00 | 0.04 | 0.03 | 93 | 1023.0 |
| 20260905144539 | 54 | 179 | 4.0 | 10.0 | 0.00 | 0.04 | 0.03 | 93 | 1022.9 |
| 20260905143036 | 53 | 157 | 4.0 | 7.0 | 0.00 | 0.04 | 0.03 | 93 | 1022.8 |
| 20260905141537 | 52 | 151 | 1.0 | 5.0 | 0.00 | 0.04 | 0.03 | 93 | 1022.3 |
| 20260905140039 | 52 | 150 | 4.0 | 8.0 | 0.00 | 0.04 | 0.03 | 93 | 1022.4 |
| 20260905134538 | 51 | 123 | 1.0 | 3.0 | 0.01 | 0.04 | 0.03 | 93 | 1021.8 |
| 20260905133044 | 51 | 138 | 2.0 | 4.0 | 0.01 | 0.04 | 0.03 | 92 | 1022.1 |
| 20260905131541 | 52 | 126 | 3.0 | 5.0 | 0.03 | 0.04 | 0.03 | 92 | 1021.9 |
| 20260905130041 | 52 | 338 | 2.0 | 5.0 | 0.03 | 0.04 | 0.03 | 92 | 1021.4 |
| 20260905124539 | 52 | 163 | 2.0 | 4.0 | 0.02 | 0.03 | 0.02 | 91 | 1021.4 |
| 20260905123035 | 52 | 163 | 2.0 | 7.0 | 0.02 | 0.03 | 0.02 | 90 | 1022.0 |
| 20260905121537 | 52 | 182 | 1.0 | 8.0 | 0.00 | 0.01 | 0.00 | 91 | 1022.3 |
| 20260905120042 | 52 | 235 | 3.0 | 7.0 | 0.00 | 0.01 | 0.00 | 90 | 1021.7 |
| 20260905114539 | 51 | 15 | 0.0 | 4.0 | 0.00 | 0.01 | 0.00 | 89 | 1021.2 |
| 20260905113048 | 52 | 0 | 0.0 | 2.0 | 0.00 | 0.01 | 0.00 | 88 | 1021.3 |
| 20260905111603 | 52 | 15 | 3.0 | 5.0 | 0.00 | 0.01 | 0.00 | 87 | 1021.0 |
| 20260905110042 | 53 | 310 | 3.0 | 6.0 | 0.00 | 0.01 | 0.00 | 87 | 1021.3 |
| 20260905104538 | 52 | 271 | 4.0 | 11.0 | 0.00 | 0.01 | 0.00 | 87 | 1022.1 |
| 20260905103038 | 51 | 217 | 2.0 | 5.0 | 0.00 | 0.01 | 0.00 | 88 | 1021.8 |
| 20260905101548 | 51 | 309 | 5.0 | 8.0 | 0.00 | 0.01 | 0.00 | 88 | 1020.6 |